Regional Weather Roundup
Issued by NWS State College, PA

Home | Current Version | Previous Version | Text Only | Print | Product List | Glossary On
Versions: 1 2 3 4 5 6 7 8 9 10 11 12 13 14 15 16 17 18 19 20 21 22 23 24 25 26 27 28 29 30 31 32 33 34 35 36 37 38 39 40 41 42 43 44 45 46 47 48 49 50
000
ASUS41 KCTP 241903
RWRCTP

REGIONAL WEATHER ROUNDUP
NATIONAL WEATHER SERVICE STATE COLLEGE PA
300 PM EDT SAT JUN 24 2017

Note: "fair" indicates few or no clouds below 12,000 feet with no
significant weather and/or obstructions to visibility.

* = STATION THAT DOES NOT REPORT PRECIPITATION /E.G. RAIN...SNOW...ETC/
    THUNDER OR FOG.

PAZ002>004-007>009-013>016-020>023-029>032-242000-
WESTERN PENNSYLVANIA

CITY           SKY/WX    TMP DP  RH WIND       PRES   REMARKS
ERIE           SUNNY     72  60  66 W16G28    29.89R
MEADVILLE      MOSUNNY   74  54  49 W17G26    29.91R
FRANKLIN*      MOSUNNY   75  55  50 W20       29.90R
NEW CASTLE     FAIR      76  58  53 W15       29.91R
BEAVER COUNTY  MOSUNNY   77  57  50 NW12G22   29.91R
BUTLER*        PTSUNNY   77  61  57 W12G23    29.91R
PITTSBURGH INT MOSUNNY   79  58  48 W17G26    29.90R
PITTSBURGH     MOSUNNY   78  57  48 W16G28    29.90S
INDIANA*       PTSUNNY   77  57  50 W15G22    29.93S
LATROBE        MOSUNNY   77  59  53 SW12G17   29.92S
WASHINGTON CO* CLOUDY    75  57  53 W9G17     29.95R
$$

PAZ004>006-010>012-017>019-024>028-033>037-041-042-045-046-049>053-242000-
CENTRAL PENNSYLVANIA

CITY           SKY/WX    TMP DP  RH WIND       PRES   REMARKS
BRADFORD       MOSUNNY   75  56  51 W10G20    29.87S
DUBOIS         SUNNY     76  55  48 W20G25    29.89R
CLEARFIELD     PTSUNNY   77  54  44 W15       29.89R
JOHNSTOWN      PTSUNNY   74  57  55 W16G23    29.95R
ALTOONA        PTSUNNY   76  58  53 W10       29.92R
STATE COLLEGE  PTSUNNY   79  55  44 SW12G21   29.88S
WILLIAMSPORT   MOSUNNY   84  56  38 W14       29.80R
SELINSGROVE    MOSUNNY   82  60  47 VRB3      29.83S
FT INDIANTOWN  PTSUNNY   80  60  49 W9        29.84R
CAPITAL CITY   PTSUNNY   82  56  40 NW14G21   29.84S
HARRISBURG     PTSUNNY   84  60  44 W10       29.84R
YORK           MOSUNNY   81  58  45 NW10G18   29.86R
$$

PAZ038>040-043-044-047-048-054-055-060>062-067>071-242000-
EASTERN PENNSYLVANIA

CITY           SKY/WX    TMP DP  RH WIND       PRES   REMARKS
SCRANTON       MOSUNNY   82  54  37 SW8       29.81S
MOUNT POCONO   MOSUNNY   74  51  44 NW13G23   29.86R
ALLENTOWN      MOSUNNY   84  57  39 W14G21    29.80S
QUAKERTOWN*    PTCLDY    82  57  42 W8        29.83R
READING        MOSUNNY   84  61  45 W10G18    29.82R
LANCASTER      MOSUNNY   83  61  47 W13G21    29.84R
COATESVILLE    CLEAR     81  59  47 W10G16    29.87R
POTTSTOWN      MOSUNNY   82  57  42 NW12      29.84R
BLUE BELL      PTSUNNY   82  61  47 W6G20     29.82S
DOYLESTOWN     SUNNY     82  56  40 NW13G18   29.81R
WILLOW GROVE   NOT AVBL
NORTH PHILA    MOSUNNY   87  60  40 NW13G22   29.82R
PHILADELPHIA   MOSUNNY   87  56  34 W16G25    29.81R
$$




USA.gov is the U.S. government's official web portal to all federal, state and local government web resources and services.